QPF
0.06 0.06 0.05 0.04 0.04 0.05 0.05 0.04 0.04 0.04 0.05 0.05 0.04 0.05 0.05 0.05 0.05 0.04 0.03 0.03 0.03 0.02 0.02 0.03 0.05 0.05 0.03 0.02 0.03 0.03 0.02 0.02 0.02 0.02 0.02 0.02 0.03 0.03
0.04 0.03 0.02 0.02 0.02 0.02 0.02 0.02 0.02 0.03 0.04 0.04 0.04 0.05 0.06 0.06 0.05 0.03 0.02 0.02 0.02 0.02 0.01 0.01 0.02 0.05 0.06 0.06 0.04 0.03 0.03 0.03 0.03 0.03 0.03 0.03 0.03 0.02
0.02 0.02 0.02 0.02 0.01 0.01 0.01 0.01 0.01 0.02 0.02 0.03 0.03 0.03 0.03 0.02 0.02 0.02 0.02 0.01 0.01 0.01 0.01 0.01 0.01 0.01 0.02 0.04 0.04 0.04 0.04 0.03 0.03 0.02 0.02 0.02 0.03 0.03
0.01 0.01 0.02 0.02 0.01 0.01 0.01 0.01 0.01 0.01 0.01 0.01 0.02 0.02 0.02 0.02 0.02 0.02 0.01 0.01 0.01 0.01 0.01 0.00 0.00 0.00 0.01 0.01 0.01 0.01 0.02 0.02 0.02 0.01 0.01 0.01 0.02 0.02
0.02 0.02 0.02 0.02 0.02 0.01 0.01 0.01 0.01 0.00 0.00 0.01 0.01 0.01 0.02 0.02 0.02 0.02 0.02 0.02 0.02 0.02 0.01 0.01 0.00 0.00 0.00 0.00 0.00 0.00 0.00 0.00 0.00 0.01 0.01 0.01 0.01 0.01
0.01 0.01 0.01 0.01 0.01 0.01 0.01 0.01 0.01 0.00 0.00 0.00 0.01 0.01 0.01 0.02 0.02 0.02 0.02 0.02 0.02 0.02 0.01 0.01 0.00 0.00 0.00 0.00 0.00 0.00 0.00 0.00 0.00 0.00 0.00 0.00 0.00 0.00
0.03 0.02 0.02 0.01 0.01 0.01 0.01 0.01 0.01 0.01 0.01 0.01 0.01 0.01 0.01 0.02 0.02 0.01 0.01 0.02 0.02 0.01 0.01 0.00 0.00 0.00 0.00 0.00 0.00 0.00 0.00 0.00 0.00 0.00 0.00 0.00 0.00 0.00
0.03 0.02 0.02 0.01 0.01 0.01 0.01 0.01 0.01 0.01 0.02 0.01 0.01 0.01 0.02 0.02 0.03 0.02 0.01 0.02 0.03 0.01 0.01 0.01 0.00 0.00 0.00 0.00 0.00 0.00 0.00 0.00 0.00 0.00 0.00 0.00 0.00 0.00
0.02 0.02 0.01 0.01 0.00 0.00 0.01 0.01 0.01 0.01 0.01 0.02 0.01 0.01 0.01 0.02 0.03 0.03 0.02 0.03 0.02 0.02 0.02 0.01 0.00 0.00 0.00 0.00 0.00 0.00 0.00 0.00 0.00 0.00 0.00 0.00 0.00 0.00
0.02 0.01 0.00 0.00 0.00 0.00 0.00 0.00 0.00 0.01 0.01 0.01 0.01 0.01 0.01 0.01 0.01 0.01 0.02 0.05 0.04 0.03 0.02 0.01 0.01 0.00 0.00 0.00 0.00 0.00 0.00 0.00 0.00 0.00 0.00 0.00 0.00 0.00
0.01 0.00 0.00 0.00 0.00 0.00 0.00 0.00 0.00 0.00 0.01 0.01 0.01 0.01 0.01 0.01 0.01 0.01 0.02 0.04 0.04 0.03 0.03 0.03 0.02 0.01 0.01 0.00 0.00 0.00 0.00 0.00 0.00 0.00 0.00 0.00 0.00 0.00
0.00 0.00 0.00 0.00 0.00 0.00 0.00 0.00 0.00 0.00 0.00 0.00 0.00 0.01 0.01 0.01 0.01 0.01 0.02 0.03 0.03 0.03 0.03 0.02 0.01 0.01 0.00 0.00 0.00 0.00 0.00 0.00 0.00 0.00 0.00 0.00 0.00 0.00
0.00 0.00 0.00 0.00 0.00 0.00 0.00 0.00 0.00 0.00 0.00 0.00 0.00 0.00 0.01 0.01 0.01 0.01 0.01 0.02 0.02 0.02 0.01 0.01 0.00 0.01 0.00 0.00 0.00 0.00 0.00 0.00 0.00 0.00 0.00 0.00 0.00 0.00
0.00 0.00 0.00 0.00 0.00 0.00 0.00 0.00 0.00 0.00 0.00 0.00 0.00 0.00 0.00 0.01 0.01 0.01 0.01 0.01 0.01 0.01 0.01 0.00 0.00 0.00 0.00 0.00 0.00 0.00 0.00 0.00 0.00 0.00 0.00 0.00 0.00 0.00
0.00 0.00 0.00 0.00 0.00 0.00 0.00 0.00 0.00 0.00 0.00 0.01 0.01 0.01 0.01 0.01 0.01 0.01 0.01 0.00 0.01 0.01 0.01 0.01 0.00 0.01 0.01 0.00 0.00 0.00 0.00 0.00 0.00 0.00 0.00 0.00 0.00 0.00
0.00 0.00 0.00 0.00 0.00 0.00 0.00 0.00 0.00 0.00 0.01 0.01 0.01 0.01 0.01 0.01 0.00 0.00 0.01 0.01 0.01 0.01 0.01 0.01 0.01 0.00 0.00 0.00 0.00 0.00 0.00 0.00 0.00 0.00 0.00 0.00 0.00 0.00
0.00 0.00 0.00 0.01 0.01 0.01 0.01 0.01 0.01 0.00 0.00 0.00 0.01 0.01 0.01 0.01 0.01 0.00 0.01 0.01 0.01 0.01 0.00 0.01 0.00 0.00 0.00 0.00 0.00 0.00 0.00 0.00 0.00 0.00 0.00 0.00 0.00 0.00
0.00 0.00 0.00 0.00 0.01 0.02 0.03 0.02 0.02 0.02 0.02 0.02 0.01 0.01 0.01 0.01 0.01 0.01 0.01 0.01 0.00 0.00 0.00 0.00 0.00 0.00 0.00 0.00 0.00 0.00 0.00 0.00 0.00 0.00 0.00 0.00 0.00 0.00
0.00 0.00 0.00 0.00 0.00 0.01 0.01 0.02 0.02 0.02 0.02 0.02 0.02 0.02 0.02 0.01 0.01 0.00 0.00 0.00 0.00 0.00 0.00 0.00 0.00 0.00 0.00 0.00 0.00 0.00 0.00 0.00 0.00 0.00 0.00 0.00 0.00 0.00
0.00 0.00 0.00 0.00 0.00 0.00 0.00 0.00 0.00 0.00 0.01 0.01 0.01 0.01 0.01 0.01 0.01 0.00 0.00 0.00 0.00 0.00 0.00 0.00 0.00 0.00 0.00 0.00 0.00 0.00 0.00 0.00 0.00 0.00 0.00 0.00 0.00 0.00
0.00 0.00 0.00 0.00 0.00 0.00 0.00 0.00 0.00 0.00 0.00 0.00 0.01 0.01 0.01 0.01 0.01 0.00 0.00 0.00 0.00 0.00 0.00 0.00 0.00 0.00 0.00 0.00 0.00 0.00 0.00 0.00 0.00 0.00 0.00 0.00 0.00 0.00
0.00 0.00 0.00 0.00 0.00 0.00 0.00 0.00 0.00 0.00 0.00 0.00 0.00 0.00 0.00 0.00 0.00 0.00 0.00 0.00 0.00 0.00 0.00 0.00 0.00 0.00 0.00 0.00 0.00 0.00 0.00 0.00 0.00 0.00 0.00 0.00 0.00 0.00
0.00 0.00 0.00 0.00 0.00 0.00 0.00 0.00 0.00 0.00 0.00 0.00 0.00 0.00 0.00 0.00 0.00 0.00 0.00 0.00 0.00 0.00 0.00 0.00 0.00 0.00 0.00 0.00 0.00 0.00 0.00 0.00 0.00 0.00 0.00 0.00 0.00 0.00
MSLP
1019.33 1019.52 1019.77 1020.10 1020.52 1021.02 1021.60 1022.23 1022.88 1023.49 1024.05 1024.49 1024.81 1024.99 1025.04 1024.98 1024.86 1024.72 1024.60 1024.54 1024.55 1024.64 1024.79 1024.97 1025.16 1025.32 1025.42 1025.46 1025.42 1025.31 1025.15 1024.94 1024.71 1024.45 1024.18 1023.89 1023.58 1023.24
1019.75 1019.90 1020.10 1020.36 1020.70 1021.13 1021.63 1022.20 1022.80 1023.39 1023.92 1024.37 1024.69 1024.88 1024.95 1024.91 1024.81 1024.68 1024.56 1024.50 1024.52 1024.61 1024.77 1024.96 1025.17 1025.35 1025.49 1025.55 1025.54 1025.45 1025.30 1025.11 1024.89 1024.65 1024.39 1024.12 1023.83 1023.51
1020.25 1020.38 1020.54 1020.76 1021.03 1021.39 1021.83 1022.33 1022.86 1023.40 1023.91 1024.34 1024.66 1024.87 1024.95 1024.94 1024.85 1024.73 1024.63 1024.56 1024.56 1024.64 1024.77 1024.95 1025.15 1025.32 1025.45 1025.52 1025.51 1025.43 1025.30 1025.13 1024.93 1024.72 1024.50 1024.27 1024.02 1023.76
1020.78 1020.92 1021.07 1021.26 1021.50 1021.80 1022.17 1022.60 1023.07 1023.56 1024.02 1024.43 1024.76 1024.97 1025.08 1025.09 1025.03 1024.92 1024.82 1024.74 1024.72 1024.76 1024.85 1024.98 1025.12 1025.25 1025.35 1025.38 1025.36 1025.28 1025.16 1025.00 1024.83 1024.66 1024.48 1024.31 1024.12 1023.91
1021.32 1021.49 1021.66 1021.84 1022.05 1022.31 1022.63 1022.99 1023.41 1023.84 1024.26 1024.65 1024.96 1025.19 1025.32 1025.35 1025.31 1025.23 1025.13 1025.04 1024.98 1024.97 1025.00 1025.05 1025.12 1025.18 1025.20 1025.18 1025.12 1025.02 1024.88 1024.74 1024.59 1024.45 1024.33 1024.21 1024.09 1023.94
1021.86 1022.06 1022.25 1022.44 1022.64 1022.88 1023.15 1023.46 1023.82 1024.20 1024.57 1024.93 1025.23 1025.46 1025.61 1025.67 1025.66 1025.60 1025.50 1025.39 1025.30 1025.23 1025.18 1025.16 1025.13 1025.10 1025.04 1024.95 1024.83 1024.68 1024.52 1024.37 1024.23 1024.12 1024.03 1023.96 1023.89 1023.81
1022.39 1022.62 1022.83 1023.03 1023.23 1023.44 1023.68 1023.94 1024.25 1024.57 1024.90 1025.22 1025.51 1025.74 1025.90 1025.98 1025.99 1025.94 1025.85 1025.73 1025.61 1025.49 1025.37 1025.26 1025.14 1025.01 1024.86 1024.69 1024.50 1024.31 1024.11 1023.94 1023.80 1023.69 1023.63 1023.59 1023.56 1023.51
1022.88 1023.12 1023.35 1023.56 1023.76 1023.96 1024.16 1024.39 1024.64 1024.91 1025.19 1025.47 1025.73 1025.94 1026.10 1026.20 1026.23 1026.19 1026.11 1025.98 1025.84 1025.67 1025.50 1025.32 1025.12 1024.91 1024.68 1024.43 1024.18 1023.93 1023.69 1023.48 1023.32 1023.20 1023.14 1023.11 1023.09 1023.07
1023.32 1023.57 1023.81 1024.02 1024.22 1024.40 1024.58 1024.76 1024.96 1025.17 1025.40 1025.63 1025.85 1026.03 1026.18 1026.28 1026.31 1026.29 1026.21 1026.09 1025.93 1025.74 1025.52 1025.29 1025.04 1024.77 1024.48 1024.17 1023.86 1023.56 1023.28 1023.03 1022.84 1022.69 1022.61 1022.56 1022.55 1022.53
1023.73 1023.97 1024.20 1024.41 1024.60 1024.76 1024.91 1025.05 1025.20 1025.35 1025.52 1025.69 1025.85 1026.00 1026.13 1026.20 1026.24 1026.21 1026.14 1026.02 1025.85 1025.65 1025.42 1025.16 1024.88 1024.58 1024.25 1023.91 1023.57 1023.22 1022.90 1022.62 1022.38 1022.20 1022.08 1022.01 1021.98 1021.96
1024.09 1024.32 1024.54 1024.74 1024.91 1025.06 1025.17 1025.28 1025.37 1025.46 1025.56 1025.67 1025.78 1025.88 1025.96 1026.01 1026.02 1025.99 1025.92 1025.79 1025.63 1025.43 1025.20 1024.94 1024.65 1024.34 1024.01 1023.65 1023.29 1022.93 1022.58 1022.26 1021.99 1021.77 1021.60 1021.50 1021.44 1021.41
1024.44 1024.65 1024.85 1025.04 1025.20 1025.32 1025.41 1025.47 1025.51 1025.54 1025.58 1025.62 1025.67 1025.71 1025.75 1025.76 1025.74 1025.69 1025.60 1025.47 1025.31 1025.11 1024.89 1024.64 1024.37 1024.07 1023.75 1023.40 1023.04 1022.68 1022.31 1021.97 1021.66 1021.40 1021.20 1021.06 1020.97 1020.93
1024.77 1024.97 1025.16 1025.33 1025.47 1025.57 1025.62 1025.65 1025.64 1025.63 1025.61 1025.59 1025.57 1025.56 1025.54 1025.51 1025.45 1025.37 1025.26 1025.12 1024.95 1024.76 1024.55 1024.31 1024.06 1023.78 1023.48 1023.16 1022.82 1022.46 1022.09 1021.74 1021.41 1021.12 1020.89 1020.71 1020.60 1020.54
1025.10 1025.28 1025.46 1025.61 1025.73 1025.81 1025.84 1025.82 1025.78 1025.72 1025.66 1025.59 1025.53 1025.46 1025.39 1025.31 1025.22 1025.10 1024.96 1024.80 1024.61 1024.41 1024.20 1023.98 1023.74 1023.49 1023.22 1022.92 1022.60 1022.26 1021.91 1021.56 1021.22 1020.91 1020.65 1020.45 1020.32 1020.24
1025.41 1025.58 1025.74 1025.88 1025.97 1026.02 1026.02 1025.99 1025.92 1025.83 1025.73 1025.63 1025.53 1025.43 1025.33 1025.21 1025.07 1024.92 1024.74 1024.54 1024.33 1024.11 1023.89 1023.66 1023.44 1023.20 1022.95 1022.68 1022.39 1022.08 1021.74 1021.40 1021.07 1020.75 1020.47 1020.25 1020.09 1020.00
1025.68 1025.84 1025.98 1026.09 1026.15 1026.18 1026.16 1026.10 1026.02 1025.92 1025.81 1025.70 1025.58 1025.46 1025.33 1025.19 1025.02 1024.83 1024.61 1024.38 1024.13 1023.88 1023.63 1023.39 1023.16 1022.92 1022.69 1022.44 1022.17 1021.88 1021.57 1021.24 1020.91 1020.60 1020.31 1020.07 1019.89 1019.77
1025.89 1026.02 1026.13 1026.20 1026.24 1026.24 1026.21 1026.14 1026.05 1025.96 1025.86 1025.76 1025.65 1025.53 1025.40 1025.24 1025.05 1024.82 1024.57 1024.30 1024.01 1023.72 1023.43 1023.16 1022.90 1022.66 1022.42 1022.18 1021.93 1021.65 1021.36 1021.05 1020.74 1020.42 1020.13 1019.87 1019.66 1019.50
1025.99 1026.09 1026.16 1026.20 1026.21 1026.18 1026.14 1026.08 1026.01 1025.93 1025.86 1025.79 1025.71 1025.61 1025.49 1025.33 1025.12 1024.88 1024.59 1024.28 1023.94 1023.61 1023.28 1022.97 1022.68 1022.41 1022.16 1021.91 1021.66 1021.40 1021.13 1020.83 1020.52 1020.21 1019.90 1019.62 1019.37 1019.17
1025.99 1026.04 1026.07 1026.07 1026.05 1026.01 1025.97 1025.92 1025.88 1025.84 1025.81 1025.78 1025.74 1025.67 1025.57 1025.42 1025.22 1024.96 1024.65 1024.29 1023.92 1023.54 1023.16 1022.81 1022.48 1022.18 1021.90 1021.65 1021.40 1021.14 1020.87 1020.58 1020.27 1019.96 1019.64 1019.33 1019.03 1018.77
1025.88 1025.88 1025.87 1025.84 1025.80 1025.76 1025.72 1025.70 1025.69 1025.70 1025.72 1025.74 1025.74 1025.72 1025.64 1025.50 1025.30 1025.03 1024.70 1024.32 1023.91 1023.49 1023.07 1022.68 1022.31 1021.98 1021.68 1021.41 1021.14 1020.88 1020.61 1020.32 1020.01 1019.68 1019.34 1019.00 1018.66 1018.34
1025.67 1025.64 1025.60 1025.55 1025.50 1025.46 1025.45 1025.45 1025.49 1025.55 1025.62 1025.69 1025.73 1025.73 1025.68 1025.56 1025.36 1025.08 1024.73 1024.33 1023.90 1023.45 1023.00 1022.57 1022.18 1021.82 1021.50 1021.21 1020.93 1020.66 1020.38 1020.09 1019.77 1019.43 1019.06 1018.69 1018.30 1017.92
1025.41 1025.36 1025.29 1025.23 1025.19 1025.17 1025.19 1025.23 1025.31 1025.41 1025.53 1025.63 1025.71 1025.73 1025.69 1025.57 1025.37 1025.09 1024.73 1024.31 1023.86 1023.39 1022.93 1022.49 1022.08 1021.71 1021.37 1021.07 1020.78 1020.51 1020.22 1019.92 1019.59 1019.23 1018.85 1018.43 1018.00 1017.57
1025.12 1025.05 1024.99 1024.94 1024.91 1024.93 1024.97 1025.06 1025.18 1025.32 1025.46 1025.59 1025.68 1025.71 1025.66 1025.54 1025.32 1025.03 1024.66 1024.24 1023.78 1023.32 1022.85 1022.41 1022.01 1021.64 1021.30 1021.00 1020.71 1020.43 1020.14 1019.83 1019.49 1019.12 1018.71 1018.28 1017.81 1017.33
Thickness
5617 5617 5617 5617 5617 5616 5614 5611 5606 5597 5592 5590 5588 5588 5586 5585 5584 5582 5580 5578 5576 5573 5570 5567 5563 5560 5556 5553 5550 5547 5544 5542 5540 5537 5535 5533 5531 5529
5604 5604 5604 5604 5604 5603 5602 5600 5599 5594 5585 5581 5579 5578 5576 5575 5573 5571 5570 5568 5565 5562 5559 5556 5552 5549 5545 5541 5538 5536 5533 5530 5528 5526 5523 5522 5519 5517
5591 5591 5590 5590 5591 5590 5590 5589 5586 5584 5577 5571 5569 5567 5565 5564 5562 5561 5559 5557 5555 5552 5549 5546 5543 5539 5535 5532 5528 5525 5522 5520 5518 5515 5513 5511 5508 5507
5578 5578 5577 5578 5577 5577 5577 5576 5574 5572 5568 5562 5557 5555 5554 5553 5551 5550 5549 5547 5545 5543 5539 5536 5533 5529 5526 5522 5519 5516 5514 5511 5508 5506 5504 5502 5499 5497
5566 5565 5565 5565 5564 5563 5563 5562 5561 5560 5557 5552 5546 5543 5542 5542 5540 5539 5539 5537 5536 5533 5530 5527 5524 5521 5518 5515 5512 5509 5506 5504 5501 5498 5496 5494 5491 5489
5553 5553 5553 5553 5552 5552 5551 5549 5548 5546 5543 5539 5535 5532 5531 5530 5529 5527 5526 5526 5525 5525 5522 5520 5517 5514 5511 5508 5506 5504 5501 5498 5495 5493 5490 5487 5485 5483
5541 5541 5542 5542 5542 5541 5540 5537 5536 5534 5530 5526 5523 5521 5519 5518 5517 5516 5515 5514 5515 5515 5514 5512 5511 5508 5506 5503 5501 5499 5496 5494 5491 5488 5485 5482 5480 5478
5530 5530 5531 5531 5531 5530 5530 5529 5527 5524 5520 5516 5513 5511 5510 5509 5508 5508 5506 5505 5505 5507 5506 5505 5505 5503 5502 5500 5498 5496 5493 5490 5487 5484 5481 5478 5476 5474
5520 5521 5522 5521 5521 5520 5520 5520 5518 5516 5514 5510 5506 5504 5503 5502 5501 5500 5499 5498 5498 5500 5499 5498 5498 5497 5498 5497 5495 5493 5491 5488 5485 5482 5479 5476 5473 5471
5512 5512 5511 5511 5512 5511 5511 5509 5507 5506 5505 5503 5501 5499 5499 5497 5496 5495 5493 5493 5494 5495 5495 5493 5493 5492 5494 5494 5493 5491 5489 5487 5484 5481 5478 5475 5472 5469
5504 5504 5504 5503 5503 5503 5502 5499 5498 5497 5498 5497 5496 5495 5494 5494 5492 5490 5489 5487 5487 5489 5491 5489 5488 5487 5489 5490 5491 5490 5488 5486 5483 5481 5478 5475 5472 5469
5496 5496 5496 5496 5496 5495 5493 5491 5489 5489 5490 5490 5491 5491 5491 5490 5489 5487 5486 5484 5483 5484 5488 5486 5485 5484 5483 5487 5488 5488 5487 5485 5483 5481 5478 5476 5472 5468
5489 5488 5489 5490 5490 5489 5488 5486 5485 5485 5484 5484 5484 5485 5486 5486 5486 5486 5486 5484 5483 5483 5487 5486 5484 5483 5481 5481 5484 5486 5486 5484 5483 5481 5479 5476 5473 5468
5483 5483 5484 5486 5486 5486 5485 5484 5483 5482 5481 5480 5479 5479 5481 5482 5484 5486 5486 5486 5486 5487 5489 5487 5485 5483 5481 5479 5480 5483 5485 5484 5482 5480 5479 5476 5474 5470
5480 5481 5482 5483 5483 5482 5482 5481 5480 5478 5477 5476 5475 5476 5478 5480 5483 5484 5486 5486 5488 5489 5490 5490 5488 5486 5483 5481 5480 5480 5481 5482 5482 5479 5478 5476 5474 5470
5477 5478 5479 5480 5479 5479 5478 5478 5477 5476 5474 5473 5473 5475 5477 5479 5481 5482 5483 5483 5484 5487 5490 5490 5490 5488 5485 5484 5482 5480 5480 5480 5481 5479 5477 5476 5474 5471
5473 5474 5474 5473 5473 5473 5473 5474 5474 5473 5473 5472 5473 5474 5475 5477 5479 5481 5481 5481 5481 5482 5484 5488 5489 5489 5488 5486 5483 5482 5481 5480 5480 5479 5476 5474 5474 5473
5470 5468 5468 5468 5469 5469 5469 5470 5471 5471 5471 5472 5472 5473 5473 5475 5476 5479 5480 5480 5480 5481 5482 5484 5486 5486 5486 5487 5487 5484 5482 5481 5481 5479 5476 5472 5472 5474
5467 5466 5466 5466 5467 5467 5468 5468 5469 5470 5471 5471 5472 5472 5473 5474 5476 5477 5478 5479 5480 5481 5483 5484 5484 5483 5480 5480 5486 5488 5484 5483 5481 5479 5477 5474 5472 5474
5466 5466 5466 5466 5467 5468 5468 5468 5469 5469 5470 5470 5471 5471 5472 5473 5475 5476 5477 5479 5480 5481 5483 5485 5485 5483 5481 5481 5483 5487 5489 5485 5482 5479 5478 5476 5474 5474
5467 5467 5468 5468 5468 5469 5469 5468 5469 5469 5469 5469 5469 5470 5471 5472 5473 5475 5477 5479 5480 5481 5481 5484 5487 5488 5487 5484 5483 5485 5489 5490 5487 5483 5480 5475 5472 5471
5470 5470 5470 5471 5470 5470 5469 5469 5469 5468 5468 5468 5469 5469 5471 5472 5473 5475 5476 5478 5479 5480 5482 5485 5487 5488 5487 5485 5483 5483 5485 5488 5489 5486 5483 5480 5474 5470
5474 5473 5473 5473 5472 5471 5471 5470 5469 5468 5468 5468 5469 5470 5471 5472 5474 5475 5477 5479 5480 5481 5483 5484 5485 5486 5486 5485 5483 5483 5485 5484 5483 5483 5483 5484 5480 5478